Zurück zum Katalog

STARLINK-5428

AktivKommunikationVLEO
NORAD 54800·PAYLOAD·🇺🇸 United States

Gestartet Dec 17, 2022 von Cape Canaveral Space Force Station

Loading…

Nächste Überflüge (nächste 24 Stunden)

TLE

AktuellSource: CelesTrak SupGP

Epoche: Sep 14, 2026, 21:00 UTC

1 54800C 22175AU  26257.87548611  .00043348  00000+0  13942-2 0  2575
2 54800  53.1571 258.0017 0001231  93.7470  69.9289 15.31673977    14

Verfolge STARLINK-5428 in Echtzeit mit AllMySat

Download on the App Store